{"data":{"norad_id":67905,"epoch":"2026-09-19T22:12:46.814112Z","epoch_age_seconds":112844,"freshness":"FRESH","line1":"1 67905U 26036B   26262.92554183  .00010236  00000+0  38087-3 0  9999","line2":"2 67905  42.9976 228.7058 0000794 279.4178  80.6584 15.27587245 33425","mean_motion":15.27587245,"eccentricity":7.94e-5,"inclination_deg":42.9976,"raan_deg":228.7058,"arg_perigee_deg":279.4178,"mean_anomaly_deg":80.6584,"bstar":0.00038087,"rev_number":3342,"period_min":94.266301627833,"perigee_km":482.4826255355,"apogee_km":483.57217844254,"semimajor_km":6861.164401989,"source":"CELESTRAK","updated_at":"2026-09-20T09:00:43.700998Z"}}